Darlington, SC

1:40 PM EDT on October 21, 2017 (GMT -0400)
Darlington County Jetport

Weather History for KUDG - March, 2014

Change the Weather History Date:

Tuesday, March 4, 2014

  Actual Average (KFLO) Record (KFLO)
Temperature  
Mean Temperature 31 °F -  
Max Temperature 39 °F 65 °F 87 °F (1976)
Min Temperature 23 °F 44 °F 18 °F (2009)
Degree Days  
Heating Degree Days 34    
Moisture  
Dew Point 17 °F    
Average Humidity 55    
Maximum Humidity 80    
Minimum Humidity 41    
Precipitation  
Precipitation 0.00 in - - ()
Sea Level Pressure  
Sea Level Pressure 30.25 in    
Wind  
Wind Speed 10 mph (NNE)    
Max Wind Speed 15 mph    
Max Gust Speed 23 mph    
Visibility 10 miles    
Events      
Averages and records for this station are not official NWS values.
T = Trace of Precipitation, MM = Missing Value Source: NWS Daily Summary

Daily Weather History Graph

Daily Weather History Graph

Search for Another Location

Airport or City:

Trip Planner

Search our weather history database for the weather conditions in past years. The results will help you decide how hot, cold, wet, or windy it might be!

Date:

Astronomy

Mar. 04, 2014 Rise Set
Actual Time 6:44 AM EST 6:18 PM EST
Civil Twilight 6:19 AM EST 6:43 PM EST
Nautical Twilight 5:50 AM EST 7:12 PM EST
Astronomical Twilight 5:21 AM EST 7:41 PM EST
Moon 8:40 AM EST (3/4) 10:11 PM EST (3/4)
Length of Visible Light 12h 23m
Length of Day
11h 33m
Waxing Crescent, 14% of the Moon is Illuminated
Mar 4
Waxing Crescent
Mar 8
First Quarter
Mar 16
Full
Mar 23
Last Quarter
Mar 30
New

Hourly Weather History & Observations

Time (EST) Temp. Windchill Dew Point Humidity Pressure Visibility Wind Dir Wind Speed Gust Speed Precip Events Conditions
12:15 AM 30.2 °F 19.8 °F 24.8 °F 80% 30.22 in 10.0 mi NE 13.8 mph 19.6 mph N/A   Overcast
12:35 AM 30.2 °F 20.8 °F 23.0 °F 75% 30.22 in 10.0 mi NNE 11.5 mph 18.4 mph N/A   Overcast
12:55 AM 28.4 °F 18.5 °F 21.2 °F 74% 30.24 in 10.0 mi NNE 11.5 mph 23.0 mph N/A   Overcast
1:15 AM 28.4 °F 17.5 °F 21.2 °F 74% 30.25 in 10.0 mi NNE 13.8 mph 18.4 mph N/A   Overcast
1:35 AM 28.4 °F 17.0 °F 21.2 °F 74% 30.24 in 10.0 mi NE 15.0 mph 21.9 mph N/A   Overcast
1:55 AM 28.4 °F 19.7 °F 21.2 °F 74% 30.24 in 10.0 mi NNE 9.2 mph - N/A   Overcast
2:15 AM 28.4 °F 17.0 °F 21.2 °F 74% 30.25 in 10.0 mi NNE 15.0 mph 19.6 mph N/A   Overcast
2:35 AM 28.4 °F 17.0 °F 19.4 °F 69% 30.23 in 10.0 mi NNE 15.0 mph 19.6 mph N/A   Overcast
2:55 AM 28.4 °F 18.5 °F 21.2 °F 74% 30.25 in 10.0 mi NNE 11.5 mph - N/A   Overcast
3:15 AM 28.4 °F 18.0 °F 19.4 °F 69% 30.25 in 10.0 mi NNE 12.7 mph 20.7 mph N/A   Overcast
3:35 AM 28.4 °F 17.0 °F 19.4 °F 69% 30.24 in 10.0 mi NNE 15.0 mph 19.6 mph N/A   Overcast
3:55 AM 26.6 °F 15.7 °F 19.4 °F 74% 30.25 in 10.0 mi North 12.7 mph 18.4 mph N/A   Overcast
4:15 AM 26.6 °F 17.5 °F 19.4 °F 74% 30.27 in 10.0 mi NNE 9.2 mph 16.1 mph N/A   Overcast
4:35 AM 26.6 °F 15.2 °F 17.6 °F 69% 30.28 in 10.0 mi North 13.8 mph - N/A   Overcast
4:55 AM 24.8 °F 14.6 °F 15.8 °F 69% 30.28 in 10.0 mi NNE 10.4 mph - N/A   Overcast
5:15 AM 24.8 °F 13.4 °F 15.8 °F 69% 30.27 in 10.0 mi NNE 12.7 mph 20.7 mph N/A   Overcast
5:35 AM 24.8 °F 13.4 °F 14.0 °F 64% 30.28 in 10.0 mi NNE 12.7 mph 19.6 mph N/A   Overcast
5:55 AM 24.8 °F 13.4 °F 12.2 °F 59% 30.29 in 10.0 mi NNE 12.7 mph 17.3 mph N/A   Overcast
6:15 AM 24.8 °F 12.4 °F 12.2 °F 59% 30.28 in 10.0 mi NNE 15.0 mph 19.6 mph N/A   Overcast
6:35 AM 23.0 °F 11.7 °F 12.2 °F 63% 30.27 in 10.0 mi NNE 11.5 mph 17.3 mph N/A   Overcast
6:55 AM 23.0 °F 12.4 °F 10.4 °F 59% 30.28 in 10.0 mi NNE 10.4 mph 19.6 mph N/A   Overcast
7:15 AM 24.8 °F 16.1 °F 10.4 °F 54% 30.31 in 10.0 mi North 8.1 mph - N/A   Overcast
7:35 AM 24.8 °F 15.3 °F 12.2 °F 59% 30.31 in 10.0 mi NNE 9.2 mph - N/A   Overcast
7:55 AM 24.8 °F 16.1 °F 12.2 °F 59% 30.33 in 10.0 mi NNE 8.1 mph - N/A   Overcast
8:15 AM 24.8 °F 14.0 °F 12.2 °F 59% 30.33 in 10.0 mi North 11.5 mph 16.1 mph N/A   Overcast
8:35 AM 24.8 °F 12.4 °F 10.4 °F 54% 30.33 in 10.0 mi NNE 15.0 mph 19.6 mph N/A   Overcast
8:55 AM 24.8 °F 12.9 °F 10.4 °F 54% 30.33 in 10.0 mi NNE 13.8 mph 19.6 mph N/A   Overcast
9:15 AM 24.8 °F 14.0 °F 12.2 °F 59% 30.33 in 10.0 mi NNE 11.5 mph - N/A   Overcast
9:35 AM 24.8 °F 12.9 °F 10.4 °F 54% 30.32 in 10.0 mi NE 13.8 mph - N/A   Overcast
9:55 AM 26.6 °F 18.2 °F 12.2 °F 55% 30.32 in 10.0 mi NNE 8.1 mph - N/A   Overcast
10:15 AM 26.6 °F 19.1 °F 12.2 °F 55% 30.33 in 10.0 mi NNE 6.9 mph - N/A   Overcast
10:35 AM 26.6 °F 19.1 °F 12.2 °F 55% 30.33 in 10.0 mi NNE 6.9 mph - N/A   Overcast
10:55 AM 28.4 °F 19.7 °F 12.2 °F 51% 30.31 in 10.0 mi NNE 9.2 mph - N/A   Overcast
11:15 AM 28.4 °F 18.0 °F 14.0 °F 55% 30.30 in 10.0 mi NNE 12.7 mph 17.3 mph N/A   Overcast
11:35 AM 30.2 °F 20.8 °F 14.0 °F 51% 30.30 in 10.0 mi North 11.5 mph - N/A   Overcast
11:55 AM 30.2 °F 21.9 °F 14.0 °F 51% 30.29 in 10.0 mi NNE 9.2 mph 19.6 mph N/A   Overcast
12:15 PM 32.0 °F 23.6 °F 14.0 °F 48% 30.28 in 10.0 mi North 10.4 mph - N/A   Overcast
12:35 PM 33.8 °F 26.4 °F 15.8 °F 48% 30.27 in 10.0 mi NNE 9.2 mph - N/A   Overcast
12:55 PM 33.8 °F 25.8 °F 15.8 °F 48% 30.27 in 10.0 mi North 10.4 mph - N/A   Overcast
1:15 PM 35.6 °F 28.6 °F 17.6 °F 48% 30.26 in 10.0 mi NNE 9.2 mph - N/A   Overcast
1:35 PM 35.6 °F 29.2 °F 17.6 °F 48% 30.25 in 10.0 mi North 8.1 mph - N/A   Overcast
1:55 PM 37.4 °F 32.8 °F 15.8 °F 41% 30.24 in 10.0 mi NNE 5.8 mph - N/A   Overcast
2:15 PM 37.4 °F 32.1 °F 17.6 °F 45% 30.23 in 10.0 mi North 6.9 mph - N/A   Overcast
2:35 PM 39.2 °F 34.2 °F 17.6 °F 42% 30.22 in 10.0 mi NNE 6.9 mph - N/A   Overcast
2:55 PM 39.2 °F 33.6 °F 17.6 °F 42% 30.21 in 10.0 mi ENE 8.1 mph - N/A   Overcast
3:15 PM 39.2 °F 34.2 °F 17.6 °F 42% 30.21 in 10.0 mi ENE 6.9 mph - N/A   Overcast
3:35 PM 39.2 °F 35.0 °F 19.4 °F 45% 30.22 in 10.0 mi NNE 5.8 mph - N/A   Overcast
3:55 PM 39.2 °F 33.0 °F 19.4 °F 45% 30.21 in 10.0 mi North 9.2 mph - N/A   Overcast
4:15 PM 39.2 °F 35.0 °F 19.4 °F 45% 30.21 in 10.0 mi NE 5.8 mph - N/A   Overcast
4:35 PM 39.2 °F 34.2 °F 19.4 °F 45% 30.21 in 10.0 mi NE 6.9 mph - N/A   Overcast
4:55 PM 39.2 °F 33.6 °F 19.4 °F 45% 30.21 in 10.0 mi NNE 8.1 mph - N/A   Overcast
5:15 PM 39.2 °F 35.9 °F 19.4 °F 45% 30.21 in 10.0 mi NE 4.6 mph - N/A   Overcast
5:35 PM 39.2 °F 35.0 °F 19.4 °F 45% 30.22 in 10.0 mi ENE 5.8 mph - N/A   Overcast
5:55 PM 39.2 °F 35.0 °F 19.4 °F 45% 30.22 in 10.0 mi NE 5.8 mph - N/A   Overcast
6:15 PM 39.2 °F 35.0 °F 21.2 °F 49% 30.22 in 10.0 mi NNE 5.8 mph - N/A   Overcast
6:35 PM 39.2 °F 35.9 °F 21.2 °F 49% 30.23 in 10.0 mi North 4.6 mph - N/A   Overcast
6:55 PM 39.2 °F - 19.4 °F 45% 30.24 in 10.0 mi North - - N/A   Overcast
7:15 PM 39.2 °F 35.9 °F 19.4 °F 45% 30.23 in 10.0 mi NNE 4.6 mph - N/A   Overcast
7:35 PM 39.2 °F 35.9 °F 21.2 °F 49% 30.23 in 10.0 mi NNE 4.6 mph - N/A   Overcast
7:55 PM 39.2 °F 34.2 °F 21.2 °F 49% 30.22 in 10.0 mi NNE 6.9 mph - N/A   Overcast
8:15 PM 39.2 °F 34.2 °F 21.2 °F 49% 30.21 in 10.0 mi NNE 6.9 mph - N/A   Overcast
8:35 PM 39.2 °F 35.0 °F 21.2 °F 49% 30.21 in 10.0 mi NE 5.8 mph - N/A   Overcast
8:55 PM 39.2 °F 35.0 °F 19.4 °F 45% 30.20 in 10.0 mi NE 5.8 mph - N/A   Overcast
9:15 PM 39.2 °F - 19.4 °F 45% 30.23 in 10.0 mi Calm Calm - N/A   Overcast
9:35 PM 39.2 °F - 21.2 °F 49% 30.22 in 10.0 mi Calm Calm - N/A   Overcast
9:55 PM 39.2 °F - 21.2 °F 49% 30.23 in 10.0 mi Calm Calm - N/A   Overcast
10:15 PM 39.2 °F 35.9 °F 21.2 °F 49% 30.23 in 10.0 mi NNE 4.6 mph - N/A   Overcast
10:35 PM 39.2 °F - 21.2 °F 49% 30.22 in 10.0 mi Calm Calm - N/A   Overcast
10:55 PM 39.2 °F - 21.2 °F 49% 30.22 in 10.0 mi Calm Calm - N/A   Overcast
11:15 PM 39.2 °F 35.9 °F 21.2 °F 49% 30.22 in 10.0 mi North 4.6 mph - N/A   Overcast
11:35 PM 37.4 °F 34.9 °F 21.2 °F 52% 30.21 in 10.0 mi NE 3.5 mph - N/A   Overcast
11:55 PM 37.4 °F 32.8 °F 21.2 °F 52% 30.20 in 10.0 mi NE 5.8 mph - N/A   Overcast